Time,TemperatureF,DewpointF,PressureIn,WindDirection,WindDirectionDegrees,WindSpeedMPH,WindSpeedGustMPH,Humidity,HourlyPrecipIn,Conditions,Clouds,dailyrainin,SoftwareType,DateUTC
2013-06-18 13:53:00,84.0,65.0,30.02,ENE,68,1.0,-999.0,53,-99.99,,,-99.99,,2013-06-18 18:53:00,
2013-06-18 14:01:00,84.0,64.0,30.02,East,99,1.0,-999.0,52,-99.99,,,-99.99,,2013-06-18 19:01:00,
2013-06-18 14:11:00,85.0,64.0,30.01,East,80,0.0,-999.0,50,-99.99,,,-99.99,,2013-06-18 19:11:00,
2013-06-18 14:22:00,85.0,62.0,30.01,ENE,62,0.0,-999.0,47,-99.99,,,-99.99,,2013-06-18 19:22:00,
2013-06-18 14:33:00,85.0,63.0,30.01,East,79,1.0,-999.0,48,-99.99,,,-99.99,,2013-06-18 19:33:00,
2013-06-18 14:43:00,85.0,64.0,30.01,SE,136,0.0,-999.0,50,-99.99,,,-99.99,,2013-06-18 19:43:00,
2013-06-18 14:52:00,85.0,64.0,30.01,East,93,1.0,-999.0,50,-99.99,,,-99.99,,2013-06-18 19:52:00,
2013-06-18 15:01:00,85.0,64.0,30.01,East,97,0.0,-999.0,50,-99.99,,,-99.99,,2013-06-18 20:01:00,
2013-06-18 15:11:00,86.0,65.0,30.00,ENE,61,0.0,-999.0,49,-99.99,,,-99.99,,2013-06-18 20:11:00,
2013-06-18 15:23:00,87.0,64.0,30.00,SW,217,0.0,-999.0,47,-99.99,,,-99.99,,2013-06-18 20:23:00,
2013-06-18 15:33:00,87.0,65.0,30.00,South,174,0.0,-999.0,48,-99.99,,,-99.99,,2013-06-18 20:33:00,
2013-06-18 15:43:00,87.0,63.0,29.99,SE,131,1.0,-999.0,45,-99.99,,,-99.99,,2013-06-18 20:43:00,
2013-06-18 15:52:00,87.0,63.0,29.99,North,-999,-999.0,-999.0,45,-99.99,,,-99.99,,2013-06-18 20:52:00,
2013-06-18 16:01:00,87.0,62.0,29.99,SE,131,1.0,-999.0,43,-99.99,,,-99.99,,2013-06-18 21:01:00,
2013-06-18 16:11:00,87.0,64.0,29.98,SE,145,1.0,-999.0,47,-99.99,,,-99.99,,2013-06-18 21:11:00,
2013-06-18 16:22:00,87.0,63.0,29.98,SE,130,1.0,-999.0,45,-99.99,,,-99.99,,2013-06-18 21:22:00,
2013-06-18 16:33:00,86.0,61.0,29.98,ESE,103,1.0,-999.0,43,-99.99,,,-99.99,,2013-06-18 21:33:00,
2013-06-18 16:43:00,87.0,62.0,29.98,East,85,1.0,-999.0,43,-99.99,,,-99.99,,2013-06-18 21:43:00,
2013-06-18 16:52:00,87.0,61.0,29.97,SSW,195,1.0,-999.0,42,-99.99,,,-99.99,,2013-06-18 21:52:00,
2013-06-18 17:01:00,87.0,60.0,29.97,SE,130,1.0,-999.0,41,-99.99,,,-99.99,,2013-06-18 22:01:00,
2013-06-18 17:11:00,87.0,62.0,29.96,East,93,1.0,-999.0,43,-99.99,,,-99.99,,2013-06-18 22:11:00,
2013-06-18 17:22:00,87.0,63.0,29.96,East,83,1.0,-999.0,45,-99.99,,,-99.99,,2013-06-18 22:22:00,
2013-06-18 17:34:00,87.0,62.0,29.96,East,95,1.0,-999.0,44,-99.99,,,-99.99,,2013-06-18 22:34:00,
2013-06-18 17:42:00,87.0,62.0,29.96,East,95,1.0,-999.0,44,-99.99,,,-99.99,,2013-06-18 22:42:00,
2013-06-18 17:53:00,87.0,63.0,29.94,ESE,117,1.0,-999.0,45,-99.99,,,-99.99,,2013-06-18 22:53:00,
2013-06-18 18:01:00,87.0,64.0,29.94,South,189,1.0,-999.0,46,-99.99,,,-99.99,,2013-06-18 23:01:00,
2013-06-18 18:11:00,86.0,63.0,29.94,SSE,161,1.0,-999.0,46,-99.99,,,-99.99,,2013-06-18 23:11:00,
2013-06-18 18:23:00,86.0,62.0,29.93,SSE,152,1.0,-999.0,45,-99.99,,,-99.99,,2013-06-18 23:23:00,
2013-06-18 18:35:00,86.0,63.0,29.93,SE,124,1.0,-999.0,46,-99.99,,,-99.99,,2013-06-18 23:35:00,
2013-06-18 18:45:00,86.0,62.0,29.93,East,89,1.0,-999.0,44,-99.99,,,-99.99,,2013-06-18 23:45:00,
2013-06-18 18:53:00,86.0,62.0,29.93,SE,140,0.0,-999.0,44,-99.99,,,-99.99,,2013-06-18 23:53:00,
2013-06-18 19:01:00,86.0,62.0,29.93,ENE,66,0.0,-999.0,45,-99.99,,,-99.99,,2013-06-19 00:01:00,
2013-06-18 19:11:00,86.0,62.0,29.94,ESE,107,1.0,-999.0,45,-99.99,,,-99.99,,2013-06-19 00:11:00,
2013-06-18 19:22:00,85.0,61.0,29.95,South,174,1.0,-999.0,45,-99.99,,,-99.99,,2013-06-19 00:22:00,
2013-06-18 19:33:00,85.0,61.0,29.95,SE,144,0.0,-999.0,44,-99.99,,,-99.99,,2013-06-19 00:33:00,
2013-06-18 19:43:00,85.0,61.0,29.95,ESE,102,0.0,-999.0,44,-99.99,,,-99.99,,2013-06-19 00:43:00,
2013-06-18 19:53:00,85.0,61.0,29.95,ESE,117,0.0,-999.0,45,-99.99,,,-99.99,,2013-06-19 00:53:00,
2013-06-18 20:01:00,84.0,61.0,29.95,ESE,106,1.0,-999.0,46,-99.99,,,-99.99,,2013-06-19 01:01:00,
2013-06-18 20:11:00,84.0,62.0,29.96,ESE,120,0.0,-999.0,48,-99.99,,,-99.99,,2013-06-19 01:11:00,
2013-06-18 20:22:00,84.0,62.0,29.96,ESE,120,0.0,-999.0,48,-99.99,,,-99.99,,2013-06-19 01:22:00,
2013-06-18 20:32:00,83.0,64.0,29.96,SSE,148,0.0,-999.0,52,-99.99,,,-99.99,,2013-06-19 01:32:00,
2013-06-18 20:42:00,83.0,64.0,29.96,SSE,148,0.0,-999.0,52,-99.99,,,-99.99,,2013-06-19 01:42:00,
2013-06-18 20:53:00,83.0,64.0,29.96,SSE,148,0.0,-999.0,52,-99.99,,,-99.99,,2013-06-19 01:53:00,
2013-06-18 21:01:00,83.0,64.0,29.96,SSE,148,0.0,-999.0,52,-99.99,,,-99.99,,2013-06-19 02:01:00,
2013-06-18 21:11:00,82.0,64.0,29.96,SSE,148,0.0,-999.0,54,-99.99,,,-99.99,,2013-06-19 02:11:00,
2013-06-18 21:21:00,82.0,64.0,29.96,SSE,148,0.0,-999.0,54,-99.99,,,-99.99,,2013-06-19 02:21:00,
2013-06-18 21:32:00,79.0,64.0,29.98,SE,133,0.0,-999.0,61,-99.99,,,-99.99,,2013-06-19 02:32:00,
2013-06-18 21:42:00,78.0,64.0,29.98,SE,133,0.0,-999.0,62,-99.99,,,-99.99,,2013-06-19 02:42:00,
2013-06-18 21:51:00,78.0,64.0,29.98,SE,133,0.0,-999.0,62,-99.99,,,-99.99,,2013-06-19 02:51:00,
2013-06-18 22:01:00,78.0,64.0,29.98,SE,133,0.0,-999.0,62,-99.99,,,-99.99,,2013-06-19 03:01:00,
2013-06-18 22:11:00,78.0,65.0,29.98,SE,133,0.0,-999.0,64,-99.99,,,-99.99,,2013-06-19 03:11:00,
2013-06-18 22:21:00,77.0,64.0,29.98,SE,133,0.0,-999.0,65,-99.99,,,-99.99,,2013-06-19 03:21:00,
2013-06-18 22:33:00,77.0,64.0,30.00,SE,133,0.0,-999.0,65,-99.99,,,-99.99,,2013-06-19 03:33:00,
2013-06-18 22:42:00,77.0,65.0,30.00,SE,133,0.0,-999.0,67,-99.99,,,-99.99,,2013-06-19 03:42:00,
2013-06-18 22:52:00,75.0,65.0,30.00,SE,133,0.0,-999.0,70,-99.99,,,-99.99,,2013-06-19 03:52:00,
2013-06-18 23:01:00,75.0,65.0,30.00,SE,134,0.0,-999.0,71,-99.99,,,-99.99,,2013-06-19 04:01:00,
2013-06-18 23:11:00,75.0,66.0,30.00,SE,133,0.0,-999.0,73,-99.99,,,-99.99,,2013-06-19 04:11:00,
2013-06-18 23:22:00,75.0,66.0,30.00,SE,133,0.0,-999.0,73,-99.99,,,-99.99,,2013-06-19 04:22:00,
2013-06-18 23:32:00,75.0,66.0,30.00,SE,133,0.0,-999.0,73,-99.99,,,-99.99,,2013-06-19 04:32:00,
2013-06-18 23:42:00,75.0,66.0,30.00,SE,133,0.0,-999.0,73,-99.99,,,-99.99,,2013-06-19 04:42:00,
2013-06-18 23:52:00,74.0,66.0,30.00,SE,134,0.0,-999.0,75,-99.99,,,-99.99,,2013-06-19 04:52:00,